sat.trackr.live / text

‹ back to catalog

STARLINK-30777

NORAD 58233 · 2023-171D

PAYLOAD ACTIVE UNKNOWN

§ Identity

Operator
Country
US
Launch date
2023-11-08
Launch site
AFETR
Launch vehicle
Mass (kg)
RCS (m²)

Purposes: comms

External: N2YO · Heavens-Above · Gunter

§ Orbital elements

Epoch: 2026-05-25T05:05:27.316608Z

Period
94.27 min
Inclination
42.9979°
Eccentricity
0.0001152
Mean motion
15.27580357 rev/d
Perigee alt
482.3 km
Apogee alt
483.8 km
Semi-major
6,861.2 km
B*
9.5647e-5
RAAN
213.4159°
Arg perigee
280.8886°
Mean anomaly
79.1836°
Rev number
14,143

§ Raw data

STARLINK-307771 58233U 23171D   26145.21212172  .00002371  00000+0  95647-4 0  99982 58233  42.9979 213.4159 0001152 280.8886  79.1836 15.27580357141437

JSON: /api/v1/satellites/58233 · /tle

For live sub-satellite position, see the globe view (requires WebGL).

§ Visibility from observer

Set your observer location to see the next 7 days of passes ≥ 10°. The values pass through the URL so the page stays shareable.

No JS? Fill the form by hand. The geolocation button needs JavaScript.